Observer details:
104 San Marcello Pistoiese.  Observers P. Bacci, M. Maestripieri.  Measurers
    P. Bacci, L. Tesi, G. Fagioli.  0.60-m F4 Reflector + CCD.
203 GiaGa Observatory.  Observers S. Foglia, G. Galli.  Measurer G. Galli.
    0.36-m f/5.76 Schmidt-Cassegrain + CCD.
204 Schiaparelli Observatory.  Observers L. Buzzi, G. Galli.  0.84-m f/3.5
    reflector + CCD.
587 Sormano.  Observers A. Fumagalli, A. Testa.  Measurer A. Testa.  0.5-m
    f/6.8 reflector + CCD.
734 Farpoint Observatory, Eskridge.  Observers D. Cromer, G. Hug, D. Goodin,
    R. Valentine.  Measurer G. Hug.  0.69-m f/3.54 reflector + CMO.
C97 Al-Fulaij Observatory, Oman.  Observers M. Al-Hadi, M. Al-Tobi, A. Al-
    Ruqaishi, Y. Al-Majrafi, M. Al-Anqodi.  0.61-m f/7.8 reflector + CCD.
G02 KYSUCE Observatory, Kysucke Nove Mesto.  Observer M. Urbanik.  0.40-m
    f/6.8 Corrected Dall-Kirkham + CCD.
H21 Astronomical Research Observatory, Westfield.  Observer R. Holmes.
    Measurers T. Linder, R. Holmes, L. Horn.  0.76-m f/3.0 astrograph + CCD.
J95 Great Shefford.  Observer P. Birtwhistle.  0.41-m f/6.3 Schmidt-Cassegrain
    + CCD.
K38 M57 Observatory, Saltrio.  Observer G. Baj.  0.35-m f/5.3 Ritchey-Chretien
    + CCD.
K63 G. Pascoli Observatory, Castelvecchio Pascoli.  Observer R. Bacci.  0.41-m
    f/3.75 0.41m f/3.2  Newton + CCD.
K74 Muensterschwarzach Observatory, Schwarzach.  Observer C. Gerhard.  0.30-m
    f/3.75 reflector + CMO.
K78 iota Scorpii Observatory, La Spezia.  Observers G. Scarfi, P. Boongerd.
    0.40-m f/6.1 reflector + CCD.
K88 GINOP-KHK, Piszkesteto.  Observer K. Sarneczky.  Measurers T. Maroti,
    K. Sarneczky.  0.60-m Schmidt + CCD.
L01 Visnjan Observatory, Tican.  Observer K. Korlevic.  1.0-m f/2.9 reflector
    + CCD.
L06 Sormano 2 Observatory, Bellagio Via Lattea.  Observers E. Valli, G.
    Ventre.  Measurer P. Sicoli.  0.36m Schmidt Cassegrain + CCD.
L90 ABObservatory, Rosarno.  Observer A. Brosio.  0.30-m f/4.0 reflector +
    CCD.
M45 Starhopper Observatory, Sfantu Gheorghe.  Observer F. Ursache.  0.41-m
    f/7.5 reflector + CMO.
W16 Pleasant Groves Observatory.  Observer M. Holbrook.  0.36-m f/2.2
    reflector + CCD.
Z80 Northolt Branch Observatory.  Observer G. Wells.  0.25-m f/8.0 Ritchey-
    Chretien + CCD.

Orbital elements:
2023 YY                                                  Earth MOID = 0.0363 AU
Epoch 2023 Sept. 13.0 TT = JDT 2460200.5                Veres                   
M 321.74971              (2000.0)            P               Q                  
n   0.50427962     Peri.  144.96360     +0.46785382     -0.87655208             
a   1.5632260      Node   276.90093     +0.78266297     +0.47030512             
e   0.3659714      Incl.    6.53590     +0.41055021     +0.10232083             
P   1.95           H   24.75          G   0.15           U   7                  
Residuals in seconds of arc
231218 K88  0.3+  0.0     231219 W16  0.4+  0.4-    231219 K78  0.2-  0.1+
231218 K88  0.2-  0.3-    231219 K38  0.2+  0.2-    231219 L90  0.2+  0.4-
231218 K88  0.1+  0.0     231219 W16  0.5-  0.3+    231219 K78  0.2-  0.2+
231218 K88  0.6+  0.2-    231219 K38  0.1+  0.2-    231219 L90  0.3-  0.3-
231218 K88  0.1+  0.2+    231219 H21  0.2+  0.1-    231219 104  0.3-  0.2+
231218 K88  0.0   0.0     231219 H21  0.3+  0.1-    231219 104  0.3-  0.3-
231218 K88  0.5+  0.2+    231219 H21  0.3+  0.1-    231219 104  0.1-  0.2+
231218 K88  0.3+  0.2+    231219 H21  0.1+  0.0     231219 Z80  0.2+  0.3-
231218 K88  0.3+  0.0     231219 H21  0.1+  0.1+    231219 587  0.4+  0.6+
231218 K88  0.3+  0.5+    231219 734  0.2+  0.2-    231219 Z80  0.5+  0.7+
231218 L01  0.0   0.1+    231219 734  0.3+  0.1-    231219 587  0.4+  0.3+
231218 L01  0.2-  0.1-    231219 W16  0.5-  0.2+    231219 J95  0.1-  0.1-
231218 L01  0.0   0.2-    231219 W16  0.6-  0.5+    231219 J95  0.1-  0.2-
231218 L01  0.1+  0.1-    231219 W16  0.8-  0.2+    231219 J95  0.3+  0.2-
231218 L01  0.2+  0.1-    231219 W16  0.3-  0.0     231219 J95  0.0   0.1-
231218 K74  0.1-  0.3+    231219 734  0.1-  0.1-    231219 K88  0.2+  0.2-
231218 K74  0.3+  0.8+    231219 734  0.1+  0.2-    231219 K88  0.3-  0.0
231218 K88  0.2-  0.3-    231219 734  0.1+  0.1-    231219 L06  0.2-  0.2+
231218 K88  0.1+  0.1+    231219 W16  0.1+  0.1+    231219 L06  0.2-  0.2+
231218 203  0.1+  0.0     231219 W16  0.2-  0.2+    231219 L06  0.0   0.4+
231218 203  0.2-  0.4+    231219 W16  0.1+  0.0     231219 K63  0.5+  0.1-
231218 203  0.1-  0.1-    231219 W16  0.5-  0.3+    231219 K63  0.3+  0.0
231219 204  0.0   0.0     231219 C97  0.9+  0.6+    231219 K63  0.0   0.1-
231219 204  0.0   0.1+    231219 C97  0.6-  0.4+    231219 L01  0.3-  0.1+
231219 204  0.1-  0.0     231219 C97  0.3-  0.7+    231219 L01  0.2-  0.0
231219 204  0.1+  0.1-    231219 G02  0.7-  0.1+    231219 L01  0.2-  0.1+
231219 204  0.0   0.2-    231219 C97  0.5+  0.2+    231219 L01  0.3-  0.2+
231219 W16  0.1-  0.6-    231219 G02  0.2+  0.2-    231219 L01  0.5-  0.0
231219 W16  0.0   0.5-    231219 C97  0.3-  0.3+    231219 M45  0.1+  0.2-
231219 W16  0.1+  0.1-    231219 C97  0.3+  0.2+    231219 M45  0.0   0.1-
231219 K38  0.0   0.2+    231219 L90  1.3+  0.4+    231219 M45  0.1+  0.3-
231219 W16  0.4+  1.1-    231219 K78  0.0   0.0

Ephemeris:
2023 YY                  a,e,i = 1.56, 0.37, 7                   q = 0.9911
Date    TT    R. A. (2000) Decl.     Delta      r    Elong.  Phase     V
2023 11 19    20 47 24.1 +31 43 27   0.1098  0.9954    90.5    83.2    22.9
...
2023 12 04    21 31 06.5 +46 14 42   0.06374 0.9932    94.9    81.4    21.6
...
2023 12 12    23 32 07.6 +62 47 06   0.04347 1.0021   112.4    65.3    20.3
...
2023 12 18    04 15 20.1 +60 52 21   0.03764 1.0131   139.7    38.9    19.2
2023 12 19    04 50 41.7 +57 10 43   0.03798 1.0153   144.8    33.9    19.1
2023 12 20    05 18 35.2 +53 04 49   0.03872 1.0175   149.8    29.1    19.0
...
2023 12 26    06 40 08.9 +30 13 56   0.05017 1.0331   171.2     8.3    18.9
...
2024 01 03    07 12 59.8 +13 46 49   0.07652 1.0586   169.5     9.8    19.9
...
2024 01 18    07 30 59.4 +03 33 30   0.1410  1.1185   161.7    16.0    21.6

M. P. C. Staff               (C) Copyright 2023 MPC           M.P.E.C. 2023-Y61





More information about the Iaude mailing list